Location: Izdebno
(52.6670°N, 16.2170°E)
Time: 03:05:59
(UTC+02:00)

Transit 2A - Pass Details

Date: 26 February 2024
Orbit: 596 x 956 km, 66.7° (Epoch: 21 April)

Event Time Altitude Azimuth Distance (km) Brightness Sun altitude
Rises 23:42:26 0° 304° (NW) 2,870 - -45.7°
Reaches altitude 10° 23:45:41 10° 330° (NNW) 2,000 - -45.7°
Maximum altitude 23:48:06 14° 3° (N) 1,771 - -45.8°
Drops below altitude 10° 23:50:37 10° 36° (NE) 2,080 - -45.8°
Sets 23:54:06 0° 61° (ENE) 3,067 - -45.9°
